| time (UTC) | temp F | wind direction | speed MPH | gust MPH | rain 1hr in | rain 24hr in | rain mn in | humidity % | barometer mb |
| 20260502170324 | 42 | 355 | 11.0 | 16.0 | 0.00 | 0.00 | 0.00 | 35 | 1017.2 |
| 20260502164312 | 40 | 282 | 5.0 | 15.0 | 0.00 | 0.00 | 0.00 | 39 | 1017.3 |
| 20260502163808 | 41 | 333 | 14.0 | 20.0 | 0.00 | 0.00 | 0.00 | 39 | 1017.5 |
| 20260502163304 | 41 | 277 | 13.0 | 15.0 | 0.00 | 0.00 | 0.00 | 39 | 1017.2 |
| 20260502162801 | 41 | 282 | 6.0 | 22.0 | 0.00 | 0.00 | 0.00 | 41 | 1017.2 |
| 20260502162258 | 41 | 264 | 6.0 | 13.0 | 0.00 | 0.00 | 0.00 | 38 | 1017.5 |
| 20260502161755 | 40 | 330 | 15.0 | 18.0 | 0.00 | 0.00 | 0.00 | 40 | 1017.5 |
| 20260502161251 | 41 | 304 | 4.0 | 12.0 | 0.00 | 0.00 | 0.00 | 41 | 1017.5 |
| 20260502160749 | 41 | 283 | 9.0 | 15.0 | 0.00 | 0.00 | 0.00 | 41 | 1017.5 |
| 20260502160248 | 41 | 295 | 11.0 | 17.0 | 0.00 | 0.00 | 0.00 | 41 | 1017.5 |
| 20260502152217 | 39 | 257 | 7.0 | 15.0 | 0.00 | 0.00 | 0.00 | 46 | 1017.8 |
| 20260502151715 | 39 | 246 | 6.0 | 13.0 | 0.00 | 0.00 | 0.00 | 46 | 1017.5 |
| 20260502151212 | 39 | 257 | 7.0 | 13.0 | 0.00 | 0.00 | 0.00 | 47 | 1017.8 |
| 20260502150709 | 40 | 243 | 6.0 | 18.0 | 0.00 | 0.00 | 0.00 | 49 | 1017.6 |
| 20260502150206 | 39 | 267 | 6.0 | 8.0 | 0.00 | 0.00 | 0.00 | 50 | 1017.8 |
| 20260502140129 | 36 | 259 | 4.0 | 10.0 | 0.00 | 0.00 | 0.00 | 55 | 1018.0 |
| 20260502130554 | 34 | 297 | 3.0 | 6.0 | 0.00 | 0.00 | 0.00 | 59 | 1018.3 |
| 20260502123538 | 32 | 230 | 3.0 | 8.0 | 0.00 | 0.00 | 0.00 | 66 | 1018.3 |
| 20260502123034 | 32 | 261 | 6.0 | 12.0 | 0.00 | 0.00 | 0.00 | 67 | 1018.2 |
| 20260502122531 | 32 | 287 | 5.0 | 9.0 | 0.00 | 0.00 | 0.00 | 68 | 1018.5 |
| 20260502122028 | 32 | 284 | 6.0 | 7.0 | 0.00 | 0.00 | 0.00 | 71 | 1018.2 |
| 20260502121525 | 32 | 276 | 2.0 | 11.0 | 0.00 | 0.00 | 0.00 | 72 | 1018.3 |
| 20260502121023 | 32 | 251 | 6.0 | 9.0 | 0.00 | 0.00 | 0.00 | 74 | 1018.3 |
| 20260502120519 | 31 | 241 | 0.0 | 3.0 | 0.00 | 0.00 | 0.00 | 75 | 1018.2 |
| 20260502115514 | 31 | 237 | 5.0 | 6.0 | 0.00 | 0.00 | 0.00 | 76 | 1018.3 |
| 20260502115009 | 31 | 274 | 4.0 | 5.0 | 0.00 | 0.00 | 0.00 | 76 | 1018.5 |
| 20260502114506 | 30 | 225 | 0.0 | 5.0 | 0.00 | 0.00 | 0.00 | 77 | 1018.3 |
| 20260502114003 | 30 | 261 | 6.0 | 6.0 | 0.00 | 0.00 | 0.00 | 79 | 1018.1 |
| 20260502113500 | 30 | 285 | 4.0 | 4.0 | 0.00 | 0.00 | 0.00 | 78 | 1018.2 |
| 20260502112959 | 30 | 244 | 4.0 | 6.0 | 0.00 | 0.00 | 0.00 | 77 | 1018.1 |
| 20260502112456 | 30 | 290 | 2.0 | 4.0 | 0.00 | 0.00 | 0.00 | 78 | 1018.1 |
| 20260502111954 | 29 | 256 | 4.0 | 4.0 | 0.00 | 0.00 | 0.00 | 78 | 1018.1 |
| 20260502111451 | 29 | 261 | 2.0 | 4.0 | 0.00 | 0.00 | 0.00 | 79 | 1018.1 |
| 20260502110948 | 29 | 182 | 0.0 | 3.0 | 0.00 | 0.00 | 0.00 | 80 | 1018.2 |
| 20260502110446 | 28 | 199 | 2.0 | 2.0 | 0.00 | 0.00 | 0.00 | 82 | 1018.1 |
| 20260502105943 | 27 | 151 | 0.0 | 2.0 | 0.00 | 0.00 | 0.00 | 83 | 1018.0 |
| 20260502105440 | 28 | 150 | 2.0 | 3.0 | 0.00 | 0.00 | 0.00 | 84 | 1018.2 |
| 20260502104938 | 28 | 154 | 2.0 | 4.0 | 0.00 | 0.00 | 0.00 | 84 | 1017.9 |
| 20260502104435 | 27 | 132 | 0.0 | 2.0 | 0.00 | 0.00 | 0.00 | 85 | 1017.9 |
| 20260502103932 | 27 | 155 | 2.0 | 2.0 | 0.00 | 0.00 | 0.00 | 85 | 1018.2 |
| 20260502103430 | 26 | 167 | 2.0 | 3.0 | 0.00 | 0.00 | 0.00 | 86 | 1018.2 |
| 20260502102927 | 26 | 168 | 2.0 | 2.0 | 0.00 | 0.00 | 0.00 | 86 | 1018.1 |
| 20260502102423 | 27 | 178 | 2.0 | 2.0 | 0.00 | 0.00 | 0.00 | 85 | 1018.1 |
| 20260502101920 | 27 | 165 | 1.0 | 2.0 | 0.00 | 0.00 | 0.00 | 85 | 1018.1 |
| 20260502101419 | 27 | 146 | 2.0 | 2.0 | 0.00 | 0.00 | 0.00 | 85 | 1018.2 |
| 20260502100917 | 26 | 147 | 0.0 | 2.0 | 0.00 | 0.00 | 0.00 | 86 | 1018.2 |
| 20260502100416 | 26 | 157 | 0.0 | 1.0 | 0.00 | 0.00 | 0.00 | 85 | 1017.9 |
| 20260502091349 | 26 | 27 | 0.0 | 1.0 | 0.00 | 0.00 | 0.00 | 89 | 1018.0 |
| 20260502090847 | 26 | 46 | 0.0 | 2.0 | 0.00 | 0.00 | 0.00 | 88 | 1017.8 |
| 20260502090344 | 27 | 0 | 1.0 | 2.0 | 0.00 | 0.00 | 0.00 | 87 | 1018.1 |
| 20260502071239 | 28 | 143 | 2.0 | 3.0 | 0.00 | 0.00 | 0.00 | 87 | 1017.9 |
| 20260502070737 | 28 | 155 | 2.0 | 2.0 | 0.00 | 0.00 | 0.00 | 87 | 1018.1 |
| 20260502070234 | 28 | 153 | 2.0 | 2.0 | 0.00 | 0.00 | 0.00 | 88 | 1018.1 |
| 20260502065733 | 27 | 190 | 3.0 | 3.0 | 0.00 | 0.00 | 0.00 | 88 | 1018.0 |
| 20260502065230 | 28 | 189 | 2.0 | 3.0 | 0.00 | 0.00 | 0.00 | 87 | 1017.9 |
| 20260502064729 | 28 | 145 | 2.0 | 3.0 | 0.00 | 0.00 | 0.00 | 85 | 1018.0 |
| 20260502064226 | 29 | 177 | 2.0 | 2.0 | 0.00 | 0.00 | 0.00 | 83 | 1017.6 |
| 20260502063723 | 28 | 123 | 2.0 | 2.0 | 0.00 | 0.00 | 0.00 | 84 | 1017.9 |
| 20260502063221 | 28 | 120 | 2.0 | 2.0 | 0.00 | 0.00 | 0.00 | 85 | 1018.0 |
| 20260502062718 | 28 | 126 | 1.0 | 2.0 | 0.00 | 0.00 | 0.00 | 85 | 1017.9 |
| 20260502062216 | 29 | 141 | 1.0 | 2.0 | 0.00 | 0.00 | 0.00 | 84 | 1017.9 |
| 20260502061714 | 29 | 129 | 0.0 | 2.0 | 0.00 | 0.00 | 0.00 | 83 | 1018.0 |
| 20260502061211 | 29 | 256 | 0.0 | 0.0 | 0.00 | 0.00 | 0.00 | 84 | 1018.2 |
| 20260502060706 | 28 | 79 | 0.0 | 1.0 | 0.00 | 0.00 | 0.00 | 85 | 1018.1 |
| 20260502060203 | 28 | 64 | 0.0 | 1.0 | 0.00 | 0.00 | 0.00 | 85 | 1017.9 |
| 20260502055701 | 29 | 129 | 0.0 | 2.0 | 0.00 | 0.00 | 0.00 | 84 | 1018.0 |
| 20260502055158 | 29 | 146 | 0.0 | 2.0 | 0.00 | 0.00 | 0.00 | 83 | 1017.8 |
| 20260502054657 | 30 | 206 | 0.0 | 1.0 | 0.00 | 0.00 | 0.00 | 83 | 1018.0 |
| 20260502054154 | 29 | 126 | 0.0 | 0.0 | 0.00 | 0.00 | 0.00 | 83 | 1018.0 |
| 20260502053651 | 29 | 264 | 2.0 | 2.0 | 0.00 | 0.00 | 0.00 | 84 | 1018.1 |
| 20260502053148 | 30 | 65 | 0.0 | 0.0 | 0.00 | 0.00 | 0.00 | 83 | 1018.1 |
| 20260502052647 | 30 | 282 | 0.0 | 1.0 | 0.00 | 0.00 | 0.00 | 82 | 1017.9 |
| 20260502052144 | 30 | 151 | 0.0 | 2.0 | 0.00 | 0.00 | 0.00 | 81 | 1017.8 |
| 20260502051642 | 30 | 245 | 0.0 | 2.0 | 0.00 | 0.00 | 0.00 | 81 | 1018.0 |
| 20260502051140 | 30 | 265 | 2.0 | 2.0 | 0.00 | 0.00 | 0.00 | 82 | 1017.8 |
| 20260502050636 | 30 | 272 | 0.0 | 2.0 | 0.00 | 0.00 | 0.00 | 82 | 1017.9 |
| 20260502050133 | 30 | 252 | 2.0 | 3.0 | 0.00 | 0.00 | 0.00 | 81 | 1017.9 |
| 20260502045630 | 31 | 303 | 2.0 | 2.0 | 0.00 | 0.00 | 0.00 | 81 | 1017.9 |
| 20260502045127 | 31 | 271 | 2.0 | 2.0 | 0.00 | 0.00 | 0.00 | 81 | 1017.6 |
| 20260502044623 | 30 | 279 | 2.0 | 3.0 | 0.00 | 0.00 | 0.00 | 82 | 1017.5 |
| 20260502044120 | 30 | 252 | 2.0 | 3.0 | 0.00 | 0.00 | 0.00 | 82 | 1017.5 |
| 20260502043618 | 30 | 267 | 2.0 | 2.0 | 0.00 | 0.00 | 0.00 | 82 | 1017.6 |
| 20260502043115 | 31 | 315 | 2.0 | 4.0 | 0.00 | 0.00 | 0.00 | 81 | 1017.6 |
| 20260502042614 | 31 | 26 | 0.0 | 2.0 | 0.00 | 0.00 | 0.00 | 80 | 1017.9 |
| 20260502042112 | 31 | 311 | 1.0 | 4.0 | 0.00 | 0.00 | 0.00 | 80 | 1017.6 |
| 20260502041610 | 31 | 240 | 0.0 | 2.0 | 0.00 | 0.00 | 0.00 | 81 | 1017.8 |
| 20260502041107 | 31 | 295 | 0.0 | 3.0 | 0.00 | 0.00 | 0.00 | 81 | 1017.9 |
| 20260502040603 | 31 | 30 | 0.0 | 2.0 | 0.00 | 0.00 | 0.00 | 80 | 1017.6 |
| 20260502040101 | 32 | 274 | 0.0 | 2.0 | 0.00 | 0.00 | 0.00 | 79 | 1017.9 |
| 20260502035556 | 32 | 267 | 2.0 | 6.0 | 0.00 | 0.00 | 0.00 | 78 | 1017.8 |
| 20260502035054 | 32 | 296 | 2.0 | 3.0 | 0.00 | 0.00 | 0.00 | 79 | 1018.0 |
| 20260502034551 | 32 | 327 | 2.0 | 3.0 | 0.00 | 0.00 | 0.00 | 79 | 1017.8 |
| 20260502034050 | 32 | 264 | 4.0 | 6.0 | 0.00 | 0.00 | 0.00 | 78 | 1017.8 |
| 20260502033548 | 32 | 291 | 3.0 | 5.0 | 0.00 | 0.00 | 0.00 | 78 | 1017.9 |
| 20260502033045 | 33 | 277 | 3.0 | 4.0 | 0.00 | 0.00 | 0.00 | 77 | 1017.9 |
| 20260502032540 | 33 | 272 | 3.0 | 6.0 | 0.00 | 0.00 | 0.00 | 77 | 1017.6 |
| 20260502032037 | 32 | 241 | 3.0 | 5.0 | 0.00 | 0.00 | 0.00 | 78 | 1017.8 |
| 20260502031535 | 32 | 273 | 3.0 | 4.0 | 0.00 | 0.00 | 0.00 | 78 | 1018.0 |
| 20260502031033 | 32 | 295 | 4.0 | 5.0 | 0.00 | 0.00 | 0.00 | 78 | 1017.6 |
| 20260502030532 | 32 | 298 | 4.0 | 6.0 | 0.00 | 0.00 | 0.00 | 77 | 1017.8 |
| 20260502030029 | 33 | 290 | 4.0 | 6.0 | 0.00 | 0.00 | 0.00 | 76 | 1017.9 |
| 20260502025526 | 33 | 287 | 1.0 | 3.0 | 0.00 | 0.00 | 0.00 | 76 | 1017.9 |
| 20260502025024 | 33 | 282 | 4.0 | 5.0 | 0.00 | 0.00 | 0.00 | 76 | 1017.8 |
| 20260502024521 | 32 | 272 | 3.0 | 5.0 | 0.00 | 0.00 | 0.00 | 76 | 1017.9 |
| 20260502024020 | 32 | 259 | 4.0 | 5.0 | 0.00 | 0.00 | 0.00 | 76 | 1018.0 |
| 20260502023517 | 33 | 280 | 2.0 | 4.0 | 0.00 | 0.00 | 0.00 | 75 | 1017.9 |
| 20260502023014 | 33 | 287 | 3.0 | 7.0 | 0.00 | 0.00 | 0.00 | 74 | 1018.0 |
| 20260502022510 | 33 | 255 | 2.0 | 6.0 | 0.00 | 0.00 | 0.00 | 73 | 1017.8 |
| 20260502022008 | 33 | 267 | 6.0 | 8.0 | 0.00 | 0.00 | 0.00 | 73 | 1017.9 |
| 20260502021505 | 33 | 290 | 1.0 | 6.0 | 0.00 | 0.00 | 0.00 | 74 | 1017.8 |
| 20260502021002 | 33 | 339 | 2.0 | 4.0 | 0.00 | 0.00 | 0.00 | 74 | 1017.8 |
| 20260502020500 | 33 | 293 | 2.0 | 7.0 | 0.00 | 0.00 | 0.00 | 73 | 1018.1 |
| 20260502015956 | 33 | 300 | 2.0 | 4.0 | 0.00 | 0.00 | 0.00 | 72 | 1017.8 |
| 20260502015454 | 34 | 245 | 2.0 | 4.0 | 0.00 | 0.00 | 0.00 | 72 | 1017.9 |
| 20260502014950 | 34 | 267 | 2.0 | 6.0 | 0.00 | 0.00 | 0.00 | 71 | 1017.9 |
| 20260502014447 | 33 | 269 | 3.0 | 4.0 | 0.00 | 0.00 | 0.00 | 71 | 1017.8 |
| 20260502013944 | 33 | 266 | 4.0 | 5.0 | 0.00 | 0.00 | 0.00 | 72 | 1017.6 |
| 20260502013440 | 33 | 334 | 4.0 | 8.0 | 0.00 | 0.00 | 0.00 | 71 | 1017.9 |
| 20260502012936 | 34 | 352 | 2.0 | 7.0 | 0.00 | 0.00 | 0.00 | 70 | 1017.8 |
| 20260502012434 | 34 | 290 | 4.0 | 6.0 | 0.00 | 0.00 | 0.00 | 69 | 1017.8 |
| 20260502011931 | 34 | 58 | 2.0 | 4.0 | 0.00 | 0.00 | 0.00 | 68 | 1017.6 |
| 20260502011427 | 35 | 269 | 6.0 | 8.0 | 0.00 | 0.00 | 0.00 | 67 | 1017.5 |
| 20260502010924 | 34 | 284 | 7.0 | 11.0 | 0.00 | 0.00 | 0.00 | 67 | 1017.6 |
| 20260502010421 | 34 | 302 | 6.0 | 8.0 | 0.00 | 0.00 | 0.00 | 67 | 1017.3 |
| 20260502005917 | 34 | 300 | 2.0 | 10.0 | 0.00 | 0.00 | 0.00 | 67 | 1017.5 |
| 20260502005415 | 34 | 0 | 6.0 | 7.0 | 0.00 | 0.00 | 0.00 | 67 | 1017.5 |
| 20260502004914 | 34 | 326 | 5.0 | 10.0 | 0.00 | 0.00 | 0.00 | 67 | 1017.5 |
| 20260502004409 | 35 | 288 | 5.0 | 8.0 | 0.00 | 0.00 | 0.00 | 66 | 1017.3 |
| 20260502003906 | 35 | 300 | 3.0 | 7.0 | 0.00 | 0.00 | 0.00 | 66 | 1017.4 |
| 20260502003404 | 35 | 283 | 6.0 | 10.0 | 0.00 | 0.00 | 0.00 | 65 | 1017.4 |
| 20260502002859 | 35 | 21 | 2.0 | 8.0 | 0.00 | 0.00 | 0.00 | 64 | 1017.3 |
| 20260502002357 | 35 | 271 | 3.0 | 9.0 | 0.00 | 0.00 | 0.00 | 64 | 1017.4 |
| 20260502001854 | 35 | 295 | 9.0 | 10.0 | 0.00 | 0.00 | 0.00 | 64 | 1017.2 |
| 20260502001352 | 35 | 289 | 2.0 | 7.0 | 0.00 | 0.00 | 0.00 | 64 | 1017.0 |
| 20260502000849 | 35 | 294 | 7.0 | 7.0 | 0.00 | 0.00 | 0.00 | 64 | 1017.0 |
| 20260502000348 | 35 | 271 | 5.0 | 9.0 | 0.00 | 0.00 | 0.00 | 63 | 1017.0 |
| 20260501235843 | 35 | 290 | 4.0 | 8.0 | 0.00 | 0.00 | 0.00 | 63 | 1017.1 |
| 20260501235339 | 35 | 280 | 4.0 | 6.0 | 0.00 | 0.00 | 0.00 | 63 | 1016.9 |
| 20260501234834 | 35 | 299 | 5.0 | 7.0 | 0.00 | 0.00 | 0.00 | 62 | 1016.8 |
| 20260501234332 | 35 | 265 | 11.0 | 14.0 | 0.00 | 0.00 | 0.00 | 60 | 1016.7 |
| 20260501233830 | 36 | 299 | 4.0 | 6.0 | 0.00 | 0.00 | 0.00 | 61 | 1017.0 |
| 20260501233327 | 35 | 290 | 4.0 | 9.0 | 0.00 | 0.00 | 0.00 | 60 | 1016.9 |
| 20260501232823 | 36 | 321 | 7.0 | 9.0 | 0.00 | 0.00 | 0.00 | 61 | 1017.0 |
| 20260501232320 | 36 | 296 | 4.0 | 6.0 | 0.00 | 0.00 | 0.00 | 61 | 1016.8 |
| 20260501231818 | 36 | 316 | 10.0 | 11.0 | 0.00 | 0.00 | 0.00 | 60 | 1017.0 |
| 20260501231316 | 36 | 270 | 10.0 | 10.0 | 0.00 | 0.00 | 0.00 | 59 | 1017.0 |
| 20260501230814 | 36 | 1 | 7.0 | 8.0 | 0.00 | 0.00 | 0.00 | 58 | 1016.6 |
| 20260501230312 | 36 | 348 | 6.0 | 10.0 | 0.00 | 0.00 | 0.00 | 56 | 1016.6 |
| 20260501225809 | 36 | 284 | 1.0 | 11.0 | 0.00 | 0.00 | 0.00 | 57 | 1016.9 |
| 20260501225307 | 36 | 335 | 7.0 | 9.0 | 0.00 | 0.00 | 0.00 | 57 | 1016.7 |
| 20260501224803 | 36 | 9 | 4.0 | 11.0 | 0.00 | 0.00 | 0.00 | 58 | 1016.8 |
| 20260501224300 | 36 | 1 | 5.0 | 11.0 | 0.00 | 0.00 | 0.00 | 56 | 1016.8 |
| 20260501223756 | 37 | 335 | 8.0 | 11.0 | 0.00 | 0.00 | 0.00 | 55 | 1016.8 |
| 20260501223253 | 37 | 27 | 3.0 | 7.0 | 0.00 | 0.00 | 0.00 | 56 | 1016.6 |
| 20260501222749 | 37 | 293 | 6.0 | 13.0 | 0.00 | 0.00 | 0.00 | 56 | 1016.7 |
| 20260501222246 | 37 | 292 | 4.0 | 10.0 | 0.00 | 0.00 | 0.00 | 57 | 1016.6 |
| 20260501221743 | 37 | 329 | 7.0 | 12.0 | 0.00 | 0.00 | 0.00 | 56 | 1016.8 |
| 20260501221240 | 37 | 20 | 8.0 | 15.0 | 0.00 | 0.00 | 0.00 | 57 | 1016.7 |
| 20260501220738 | 37 | 320 | 4.0 | 10.0 | 0.00 | 0.00 | 0.00 | 58 | 1016.6 |
| 20260501220235 | 37 | 284 | 4.0 | 11.0 | 0.00 | 0.00 | 0.00 | 59 | 1016.6 |
| 20260501215732 | 37 | 275 | 6.0 | 15.0 | 0.00 | 0.00 | 0.00 | 58 | 1016.5 |
| 20260501215227 | 37 | 285 | 4.0 | 12.0 | 0.00 | 0.00 | 0.00 | 59 | 1016.5 |
| 20260501214722 | 37 | 278 | 6.0 | 12.0 | 0.00 | 0.00 | 0.00 | 59 | 1016.5 |
| 20260501214219 | 37 | 309 | 5.0 | 14.0 | 0.00 | 0.00 | 0.00 | 58 | 1016.3 |
| 20260501213715 | 37 | 10 | 6.0 | 10.0 | 0.00 | 0.00 | 0.00 | 57 | 1016.4 |
| 20260501213211 | 37 | 331 | 11.0 | 14.0 | 0.00 | 0.00 | 0.00 | 56 | 1016.3 |
| 20260501212708 | 38 | 268 | 8.0 | 15.0 | 0.00 | 0.00 | 0.00 | 55 | 1015.9 |
| 20260501212204 | 38 | 332 | 8.0 | 12.0 | 0.00 | 0.00 | 0.00 | 54 | 1016.1 |
| 20260501211701 | 38 | 280 | 13.0 | 16.0 | 0.00 | 0.00 | 0.00 | 54 | 1016.1 |
| 20260501211158 | 38 | 357 | 6.0 | 12.0 | 0.00 | 0.00 | 0.00 | 54 | 1015.9 |
| 20260501210655 | 38 | 299 | 9.0 | 11.0 | 0.00 | 0.00 | 0.00 | 54 | 1015.9 |
| 20260501210152 | 39 | 284 | 8.0 | 13.0 | 0.00 | 0.00 | 0.00 | 52 | 1015.8 |
| 20260501205648 | 39 | 353 | 4.0 | 12.0 | 0.00 | 0.00 | 0.00 | 50 | 1015.8 |
| 20260501205146 | 39 | 7 | 8.0 | 18.0 | 0.00 | 0.00 | 0.00 | 48 | 1015.8 |
| 20260501204642 | 39 | 307 | 5.0 | 9.0 | 0.00 | 0.00 | 0.00 | 51 | 1015.9 |
| 20260501204138 | 38 | 19 | 9.0 | 10.0 | 0.00 | 0.00 | 0.00 | 53 | 1015.9 |
| 20260501203635 | 38 | 22 | 5.0 | 9.0 | 0.00 | 0.00 | 0.00 | 52 | 1015.8 |
| 20260501203133 | 38 | 310 | 2.0 | 14.0 | 0.00 | 0.00 | 0.00 | 54 | 1015.9 |
| 20260501202629 | 38 | 316 | 2.0 | 7.0 | 0.00 | 0.00 | 0.00 | 53 | 1015.9 |
| 20260501202126 | 38 | 17 | 5.0 | 11.0 | 0.00 | 0.00 | 0.00 | 53 | 1015.9 |
| 20260501201623 | 38 | 33 | 6.0 | 17.0 | 0.00 | 0.00 | 0.00 | 53 | 1015.8 |
| 20260501201119 | 38 | 1 | 6.0 | 7.0 | 0.00 | 0.00 | 0.00 | 54 | 1015.8 |
| 20260501200617 | 38 | 294 | 4.0 | 6.0 | 0.00 | 0.00 | 0.00 | 52 | 1015.8 |
| 20260501200114 | 38 | 298 | 3.0 | 8.0 | 0.00 | 0.00 | 0.00 | 54 | 1015.9 |
| 20260501195612 | 38 | 338 | 6.0 | 12.0 | 0.00 | 0.00 | 0.00 | 53 | 1015.9 |
| 20260501195107 | 38 | 333 | 3.0 | 13.0 | 0.00 | 0.00 | 0.00 | 53 | 1015.8 |
| 20260501194603 | 38 | 331 | 3.0 | 13.0 | 0.00 | 0.00 | 0.00 | 53 | 1016.1 |
| 20260501194058 | 38 | 20 | 8.0 | 10.0 | 0.00 | 0.00 | 0.00 | 54 | 1015.6 |
| 20260501193556 | 39 | 34 | 7.0 | 8.0 | 0.00 | 0.00 | 0.00 | 55 | 1015.9 |
| 20260501193055 | 38 | 345 | 4.0 | 8.0 | 0.00 | 0.00 | 0.00 | 55 | 1015.7 |
| 20260501192551 | 38 | 1 | 7.0 | 9.0 | 0.00 | 0.00 | 0.00 | 56 | 1015.7 |
| 20260501192049 | 38 | 359 | 13.0 | 15.0 | 0.00 | 0.00 | 0.00 | 54 | 1015.8 |
| 20260501191545 | 38 | 356 | 8.0 | 12.0 | 0.00 | 0.00 | 0.00 | 57 | 1015.8 |
| 20260501191043 | 38 | 18 | 13.0 | 16.0 | 0.00 | 0.00 | 0.00 | 55 | 1015.8 |
| 20260501190538 | 38 | 83 | 2.0 | 9.0 | 0.00 | 0.00 | 0.00 | 57 | 1015.9 |
| 20260501190034 | 37 | 347 | 12.0 | 15.0 | 0.00 | 0.00 | 0.00 | 58 | 1015.9 |
| 20260501185531 | 37 | 26 | 0.0 | 6.0 | 0.00 | 0.00 | 0.00 | 64 | 1015.5 |
| 20260501185026 | 36 | 80 | 3.0 | 6.0 | 0.00 | 0.00 | 0.00 | 65 | 1015.8 |
| 20260501184523 | 36 | 74 | 3.0 | 5.0 | 0.00 | 0.00 | 0.00 | 66 | 1015.7 |
| 20260501184023 | 36 | 94 | 4.0 | 6.0 | 0.00 | 0.00 | 0.00 | 67 | 1015.9 |
| 20260501183520 | 36 | 110 | 4.0 | 4.0 | 0.00 | 0.00 | 0.00 | 68 | 1015.8 |
| 20260501183016 | 35 | 196 | 0.0 | 3.0 | 0.00 | 0.00 | 0.00 | 69 | 1015.9 |
| 20260501182513 | 34 | 44 | 5.0 | 8.0 | 0.00 | 0.00 | 0.00 | 71 | 1016.0 |
| 20260501182010 | 34 | 62 | 6.0 | 10.0 | 0.00 | 0.00 | 0.00 | 71 | 1015.9 |
| 20260501181507 | 34 | 358 | 8.0 | 17.0 | 0.00 | 0.00 | 0.00 | 68 | 1016.1 |
| 20260501181004 | 36 | 22 | 13.0 | 15.0 | 0.00 | 0.00 | 0.00 | 64 | 1015.9 |
| 20260501180502 | 37 | 38 | 5.0 | 8.0 | 0.00 | 0.00 | 0.00 | 59 | 1016.0 |
| 20260501180003 | 37 | 280 | 3.0 | 6.0 | 0.00 | 0.00 | 0.00 | 55 | 1015.8 |
| 20260501175500 | 37 | 5 | 4.0 | 8.0 | 0.00 | 0.00 | 0.00 | 56 | 1015.5 |
| 20260501174956 | 37 | 325 | 6.0 | 12.0 | 0.00 | 0.00 | 0.00 | 56 | 1015.7 |
| 20260501174454 | 38 | 327 | 3.0 | 6.0 | 0.00 | 0.00 | 0.00 | 57 | 1015.7 |
| 20260501173952 | 37 | 254 | 3.0 | 6.0 | 0.00 | 0.00 | 0.00 | 59 | 1015.7 |
| 20260501173449 | 37 | 301 | 7.0 | 10.0 | 0.00 | 0.00 | 0.00 | 58 | 1015.9 |
| 20260501172944 | 37 | 221 | 4.0 | 4.0 | 0.00 | 0.00 | 0.00 | 61 | 1015.9 |
| 20260501172440 | 36 | 310 | 2.0 | 6.0 | 0.00 | 0.00 | 0.00 | 61 | 1015.7 |